Showing default

IRIDIUM 175, 43928

Orbit data source: Space-Track

IRIDIUM 175, 43928 is a payload satellite owned by Iridium (US) in LEO that was launched on Fri, 11 Jan 2019 UTC via an FALCON 9 launch vehicle from the Air Force Western Test Range (AFWTR). Payload-class satellites include a variety of spacecraft equipped with specific instruments for various scientific and technological missions. These include communications satellites like Starlink; space stations such as the ISS; scientific satellites like the Hubble; Earth observation satellites from companies like Planet Labs, Umbra, and HawkEye 360; GPS; miniature CubeSats for education and research; and military/defense satellites.

Loading next visibility...
Identifier
43928, 2019-002G
Orbit
LEO
Country
Flag of USUS
Related business
Manufacturer
NGIS SSG Gilbert
Mission
Operational Commercial Communications
Bus & Motor
ELITEBUS, Unknown motor
Mass
860 kg wet, 700 kg dry
Launch date (UTC)
2019-01-11 (7 years ago)
Launch vehicle
FALCON 9
Launch site
Air Force Western Test Range (AFWTR)
Object type
Payload
Rocket body
Debris
Shape & HBR
Trap Box + 2 Pan, 4.8 m
Radar Cross Section
10.154 m², Large (>1 m²)

Expand to show TLE details & history
Last TLE update: 8 hours ago

TLE from 8 hours ago
0 IRIDIUM 175
1 43928U 19002G   25303.28738898  .00001041  00000-0  16114-3 0  9996
2 43928  86.1532  34.5349 0001601 111.6937 248.4451 14.72249144365412
Epoch: 2025-10-30T06:53Z
TLE epoch observation values (Epoch: 2025-10-30T06:53:50.407Z)
Latitude
0.00004°
Longitude
-107.77346°
Altitude
657.412 km
Speed
7.528 km/s
True Right ascension
02h 18m 08s
True Declination
0° 00' 00"
Sunlit
Object was in full shadow at epoch
Visualization orbit readout
Latitude
Unknown
Longitude
Unknown
Altitude
Unknown
Speed
Unknown
Apparent Right ascension
Unknown
Apparent Declination
Unknown
Sunlit
N/A
Visualization observer readout
Local Sidereal Time
10:54:41
Azimuth
Unknown
Elevation
Unknown
Doppler factor
Unknown
Orbital elements
Apogee altitude
651.939 km
Perigee altitude
649.688 km
Semi-major axis
7,028.95 km
Eccentricity
0.00016
Inclination
86.1532°
RAAN
34.5349°
Arg. of periapsis
111.6937°
True anomaly
248.42804°
Mean anomaly
248.4451°
Eccentric anomaly
248.43657°
Mean motion
3.68305 °/min
Orbital period
97.75 mins
BSTAR
0.00016114
Loading maneuver chart data...
Computing Atmospheric mass density...
Loading historical data...
Loading historical data...
Loading historical data...
Loading historical data...
Loading historical data...
Loading historical data...
Loading historical data...

Documentation

Showing up to 5 results
|